| time (UTC) | temp C | wind direction | speed KPH | gust KPH | rain 1hr cm | rain 24hr cm | rain mn cm | humidity % | barometer mb |
| 20260507093605 | 15 | 72 | 3.2 | 4.8 | 0.00 | 0.00 | 0.00 | 55 | 1002.2 |
| 20260507093405 | 15 | 35 | 3.2 | 4.8 | 0.00 | 0.00 | 0.00 | 55 | 1002.1 |
| 20260507093204 | 15 | 9 | 3.2 | 4.8 | 0.00 | 0.00 | 0.00 | 54 | 1002.2 |
| 20260507092804 | 15 | 330 | 1.6 | 4.8 | 0.00 | 0.00 | 0.00 | 55 | 1002.2 |
| 20260507092605 | 15 | 330 | 1.6 | 4.8 | 0.00 | 0.00 | 0.00 | 56 | 1002.3 |
| 20260507092405 | 16 | 165 | 0.0 | 3.2 | 0.00 | 0.00 | 0.00 | 59 | 1002.3 |
| 20260507092205 | 16 | 181 | 1.6 | 4.8 | 0.00 | 0.00 | 0.00 | 60 | 1002.2 |
| 20260507092005 | 16 | 186 | 1.6 | 4.8 | 0.00 | 0.00 | 0.00 | 60 | 1002.3 |
| 20260507091804 | 16 | 184 | 1.6 | 4.8 | 0.00 | 0.00 | 0.00 | 60 | 1002.3 |
| 20260507091605 | 15 | 174 | 1.6 | 4.8 | 0.00 | 0.00 | 0.00 | 61 | 1002.3 |
| 20260507091405 | 15 | 161 | 3.2 | 4.8 | 0.00 | 0.00 | 0.00 | 61 | 1002.3 |
| 20260507091204 | 15 | 121 | 3.2 | 4.8 | 0.00 | 0.00 | 0.00 | 60 | 1002.1 |
| 20260507091005 | 15 | 101 | 3.2 | 4.8 | 0.00 | 0.00 | 0.00 | 60 | 1002.1 |
| 20260507090605 | 15 | 73 | 3.2 | 4.8 | 0.00 | 0.00 | 0.00 | 58 | 1002.1 |
| 20260507090404 | 15 | 78 | 3.2 | 4.8 | 0.00 | 0.00 | 0.00 | 59 | 1002.3 |
| 20260507090205 | 15 | 79 | 3.2 | 4.8 | 0.00 | 0.00 | 0.00 | 58 | 1002.3 |
| 20260507090005 | 15 | 76 | 3.2 | 4.8 | 0.00 | 0.00 | 0.00 | 59 | 1002.1 |
| 20260507085804 | 15 | 81 | 1.6 | 4.8 | 0.00 | 0.00 | 0.00 | 60 | 1002.3 |
| 20260507085605 | 15 | 100 | 1.6 | 4.8 | 0.00 | 0.00 | 0.00 | 60 | 1002.2 |
| 20260507085405 | 15 | 23 | 1.6 | 4.8 | 0.00 | 0.00 | 0.00 | 60 | 1002.3 |
| 20260507085205 | 16 | 221 | 1.6 | 4.8 | 0.00 | 0.00 | 0.00 | 61 | 1002.1 |
| 20260507085004 | 15 | 235 | 1.6 | 3.2 | 0.00 | 0.00 | 0.00 | 63 | 1002.2 |
| 20260507084804 | 15 | 229 | 1.6 | 3.2 | 0.00 | 0.00 | 0.00 | 63 | 1002.1 |
| 20260507084605 | 15 | 219 | 1.6 | 3.2 | 0.00 | 0.00 | 0.00 | 65 | 1002.1 |
| 20260507084405 | 15 | 215 | 1.6 | 3.2 | 0.00 | 0.00 | 0.00 | 66 | 1002.0 |
| 20260507084205 | 15 | 212 | 1.6 | 3.2 | 0.00 | 0.00 | 0.00 | 68 | 1002.1 |
| 20260507084005 | 15 | 191 | 1.6 | 3.2 | 0.00 | 0.00 | 0.00 | 70 | 1001.9 |
| 20260507083805 | 15 | 192 | 1.6 | 3.2 | 0.00 | 0.00 | 0.00 | 71 | 1002.0 |
| 20260507083404 | 14 | 192 | 1.6 | 3.2 | 0.00 | 0.00 | 0.00 | 71 | 1001.8 |
| 20260507083205 | 13 | 194 | 1.6 | 3.2 | 0.00 | 0.00 | 0.00 | 71 | 1002.0 |
| 20260507083005 | 13 | 206 | 1.6 | 3.2 | 0.00 | 0.00 | 0.00 | 71 | 1001.8 |
| 20260507082805 | 13 | 214 | 0.0 | 3.2 | 0.00 | 0.00 | 0.00 | 71 | 1001.9 |
| 20260507082605 | 13 | 204 | 0.0 | 3.2 | 0.00 | 0.00 | 0.00 | 70 | 1001.9 |
| 20260507082404 | 12 | 190 | 1.6 | 3.2 | 0.00 | 0.00 | 0.00 | 70 | 1001.9 |
| 20260507082205 | 12 | 205 | 1.6 | 3.2 | 0.00 | 0.00 | 0.00 | 69 | 1001.8 |
| 20260507081804 | 12 | 206 | 1.6 | 3.2 | 0.00 | 0.00 | 0.00 | 69 | 1001.9 |
| 20260507081605 | 12 | 208 | 1.6 | 3.2 | 0.00 | 0.00 | 0.00 | 70 | 1001.8 |
| 20260507081405 | 12 | 236 | 1.6 | 3.2 | 0.00 | 0.00 | 0.00 | 70 | 1001.9 |
| 20260507081205 | 12 | 209 | 1.6 | 3.2 | 0.00 | 0.00 | 0.00 | 70 | 1001.9 |
| 20260507080804 | 12 | 198 | 1.6 | 3.2 | 0.00 | 0.00 | 0.00 | 70 | 1001.8 |
| 20260507080605 | 12 | 199 | 1.6 | 3.2 | 0.00 | 0.00 | 0.00 | 70 | 1001.8 |
| 20260507080204 | 12 | 181 | 0.0 | 3.2 | 0.00 | 0.00 | 0.00 | 70 | 1001.8 |
| 20260507080005 | 12 | 181 | 0.0 | 1.6 | 0.00 | 0.00 | 0.00 | 71 | 1001.8 |
| 20260507075805 | 12 | 181 | 0.0 | 3.2 | 0.00 | 0.00 | 0.00 | 71 | 1001.8 |
| 20260507075605 | 12 | 166 | 1.6 | 3.2 | 0.00 | 0.00 | 0.00 | 71 | 1001.7 |
| 20260507075405 | 12 | 166 | 1.6 | 3.2 | 0.00 | 0.00 | 0.00 | 72 | 1001.8 |
| 20260507075205 | 12 | 166 | 1.6 | 3.2 | 0.00 | 0.00 | 0.00 | 75 | 1001.8 |
| 20260507075005 | 12 | 165 | 1.6 | 3.2 | 0.00 | 0.00 | 0.00 | 75 | 1001.7 |
| 20260507074804 | 12 | 189 | 1.6 | 3.2 | 0.00 | 0.00 | 0.00 | 75 | 1001.8 |
| 20260507074605 | 12 | 210 | 1.6 | 3.2 | 0.00 | 0.00 | 0.00 | 75 | 1001.8 |
| 20260507074205 | 11 | 211 | 1.6 | 3.2 | 0.00 | 0.00 | 0.00 | 75 | 1001.7 |
| 20260507073805 | 11 | 3 | 1.6 | 3.2 | 0.00 | 0.00 | 0.00 | 75 | 1001.8 |
| 20260507073605 | 11 | 3 | 1.6 | 3.2 | 0.00 | 0.00 | 0.00 | 75 | 1001.7 |
| 20260507073404 | 11 | 15 | 1.6 | 3.2 | 0.00 | 0.00 | 0.00 | 75 | 1001.9 |
| 20260507073204 | 11 | 53 | 1.6 | 3.2 | 0.00 | 0.00 | 0.00 | 75 | 1001.8 |
| 20260507073005 | 11 | 164 | 1.6 | 3.2 | 0.00 | 0.00 | 0.00 | 75 | 1001.8 |
| 20260507072805 | 11 | 172 | 1.6 | 3.2 | 0.00 | 0.00 | 0.00 | 76 | 1001.6 |
| 20260507072605 | 11 | 172 | 1.6 | 3.2 | 0.00 | 0.00 | 0.00 | 75 | 1001.7 |
| 20260507072405 | 11 | 141 | 1.6 | 3.2 | 0.00 | 0.00 | 0.00 | 75 | 1001.7 |
| 20260507072204 | 11 | 112 | 1.6 | 3.2 | 0.00 | 0.00 | 0.00 | 75 | 1001.7 |
| 20260507072005 | 10 | 69 | 1.6 | 3.2 | 0.00 | 0.00 | 0.00 | 75 | 1001.8 |
| 20260507071605 | 10 | 52 | 3.2 | 4.8 | 0.00 | 0.00 | 0.00 | 75 | 1001.6 |
| 20260507071404 | 10 | 40 | 3.2 | 4.8 | 0.00 | 0.00 | 0.00 | 75 | 1001.6 |
| 20260507071205 | 10 | 45 | 3.2 | 4.8 | 0.00 | 0.00 | 0.00 | 75 | 1001.6 |
| 20260507071005 | 10 | 40 | 3.2 | 4.8 | 0.00 | 0.00 | 0.00 | 76 | 1001.7 |
| 20260507070805 | 10 | 227 | 3.2 | 4.8 | 0.00 | 0.00 | 0.00 | 76 | 1001.6 |
| 20260507070009 | 10 | 181 | 1.6 | 4.8 | 0.00 | 0.00 | 0.00 | 78 | 1001.6 |
| 20260507065805 | 10 | 185 | 1.6 | 4.8 | 0.00 | 0.00 | 0.00 | 78 | 1001.6 |
| 20260507065605 | 10 | 179 | 1.6 | 3.2 | 0.00 | 0.00 | 0.00 | 78 | 1001.6 |
| 20260507065405 | 10 | 171 | 1.6 | 3.2 | 0.00 | 0.00 | 0.00 | 78 | 1001.6 |
| 20260507065004 | 10 | 116 | 1.6 | 3.2 | 0.00 | 0.00 | 0.00 | 79 | 1001.6 |
| 20260507064805 | 10 | 134 | 3.2 | 3.2 | 0.00 | 0.00 | 0.00 | 79 | 1001.6 |
| 20260507064605 | 10 | 150 | 3.2 | 3.2 | 0.00 | 0.00 | 0.00 | 79 | 1001.5 |
| 20260507064405 | 10 | 162 | 3.2 | 3.2 | 0.00 | 0.00 | 0.00 | 79 | 1001.6 |
| 20260507064204 | 10 | 165 | 1.6 | 3.2 | 0.00 | 0.00 | 0.00 | 79 | 1001.8 |
| 20260507064005 | 10 | 181 | 1.6 | 3.2 | 0.00 | 0.00 | 0.00 | 80 | 1001.6 |
| 20260507063805 | 9 | 198 | 1.6 | 3.2 | 0.00 | 0.00 | 0.00 | 80 | 1001.7 |
| 20260507063604 | 9 | 162 | 3.2 | 6.4 | 0.00 | 0.00 | 0.00 | 79 | 1001.6 |
| 20260507063405 | 9 | 103 | 3.2 | 6.4 | 0.00 | 0.00 | 0.00 | 79 | 1001.7 |
| 20260507063205 | 9 | 52 | 3.2 | 6.4 | 0.00 | 0.00 | 0.00 | 79 | 1001.6 |
| 20260507062605 | 9 | 112 | 1.6 | 3.2 | 0.00 | 0.00 | 0.00 | 80 | 1001.5 |
| 20260507062404 | 9 | 137 | 1.6 | 3.2 | 0.00 | 0.00 | 0.00 | 80 | 1001.6 |
| 20260507062204 | 9 | 149 | 1.6 | 3.2 | 0.00 | 0.00 | 0.00 | 80 | 1001.5 |
| 20260507062005 | 9 | 134 | 1.6 | 3.2 | 0.00 | 0.00 | 0.00 | 80 | 1001.5 |
| 20260507061805 | 9 | 178 | 1.6 | 3.2 | 0.00 | 0.00 | 0.00 | 80 | 1001.5 |
| 20260507061604 | 9 | 173 | 1.6 | 3.2 | 0.00 | 0.00 | 0.00 | 80 | 1001.5 |
| 20260507061405 | 8 | 164 | 1.6 | 3.2 | 0.00 | 0.00 | 0.00 | 80 | 1001.5 |
| 20260507061205 | 8 | 173 | 1.6 | 3.2 | 0.00 | 0.00 | 0.00 | 80 | 1001.5 |
| 20260507061005 | 8 | 119 | 1.6 | 3.2 | 0.00 | 0.00 | 0.00 | 80 | 1001.4 |
| 20260507060804 | 8 | 76 | 3.2 | 3.2 | 0.00 | 0.00 | 0.00 | 80 | 1001.4 |
| 20260507060604 | 8 | 60 | 1.6 | 3.2 | 0.00 | 0.00 | 0.00 | 80 | 1001.3 |
| 20260507060205 | 8 | 44 | 3.2 | 4.8 | 0.00 | 0.00 | 0.00 | 80 | 1001.4 |
| 20260507055805 | 8 | 62 | 3.2 | 4.8 | 0.00 | 0.00 | 0.00 | 80 | 1001.4 |
| 20260507055605 | 8 | 58 | 3.2 | 4.8 | 0.00 | 0.00 | 0.00 | 80 | 1001.4 |
| 20260507055205 | 8 | 81 | 3.2 | 3.2 | 0.00 | 0.00 | 0.00 | 80 | 1001.3 |
| 20260507055005 | 8 | 87 | 3.2 | 3.2 | 0.00 | 0.00 | 0.00 | 80 | 1001.3 |
| 20260507054804 | 8 | 80 | 1.6 | 3.2 | 0.00 | 0.00 | 0.00 | 80 | 1001.4 |
| 20260507054605 | 8 | 84 | 1.6 | 3.2 | 0.00 | 0.00 | 0.00 | 80 | 1001.4 |
| 20260507054205 | 8 | 103 | 1.6 | 3.2 | 0.00 | 0.00 | 0.00 | 80 | 1001.3 |
| 20260507053804 | 8 | 124 | 0.0 | 3.2 | 0.00 | 0.00 | 0.00 | 80 | 1001.2 |
| 20260507053605 | 8 | 109 | 0.0 | 3.2 | 0.00 | 0.00 | 0.00 | 80 | 1001.3 |
| 20260507053405 | 8 | 109 | 0.0 | 3.2 | 0.00 | 0.00 | 0.00 | 80 | 1001.4 |
| 20260507053005 | 8 | 50 | 0.0 | 3.2 | 0.00 | 0.00 | 0.00 | 80 | 1001.1 |
| 20260507052804 | 8 | 135 | 0.0 | 1.6 | 0.00 | 0.00 | 0.00 | 80 | 1001.3 |
| 20260507052605 | 8 | 129 | 0.0 | 3.2 | 0.00 | 0.00 | 0.00 | 80 | 1001.2 |
| 20260507052405 | 8 | 129 | 0.0 | 3.2 | 0.00 | 0.00 | 0.00 | 80 | 1001.2 |
| 20260507052205 | 8 | 129 | 0.0 | 3.2 | 0.00 | 0.00 | 0.00 | 80 | 1001.2 |
| 20260507052004 | 8 | 129 | 0.0 | 3.2 | 0.00 | 0.00 | 0.00 | 80 | 1001.2 |
| 20260507051605 | 8 | 79 | 0.0 | 3.2 | 0.00 | 0.00 | 0.00 | 80 | 1001.2 |
| 20260507051404 | 8 | 83 | 0.0 | 4.8 | 0.00 | 0.00 | 0.00 | 80 | 1001.3 |
| 20260507051204 | 8 | 64 | 1.6 | 4.8 | 0.00 | 0.00 | 0.00 | 80 | 1001.1 |
| 20260507051005 | 8 | 69 | 1.6 | 4.8 | 0.00 | 0.00 | 0.00 | 80 | 1001.2 |
| 20260507050805 | 8 | 66 | 1.6 | 4.8 | 0.00 | 0.00 | 0.00 | 80 | 1001.2 |
| 20260507050604 | 8 | 61 | 1.6 | 4.8 | 0.00 | 0.00 | 0.00 | 80 | 1001.3 |
| 20260507050405 | 8 | 55 | 1.6 | 4.8 | 0.00 | 0.00 | 0.00 | 80 | 1001.2 |
| 20260507050204 | 8 | 60 | 1.6 | 3.2 | 0.00 | 0.00 | 0.00 | 80 | 1001.2 |
| 20260507050006 | 8 | 42 | 0.0 | 3.2 | 0.00 | 0.00 | 0.00 | 80 | 1001.3 |
| 20260507045805 | 8 | 35 | 0.0 | 3.2 | 0.00 | 0.00 | 0.00 | 80 | 1001.2 |
| 20260507045605 | 8 | 42 | 1.6 | 3.2 | 0.00 | 0.00 | 0.00 | 80 | 1001.1 |
| 20260507045404 | 8 | 34 | 1.6 | 3.2 | 0.00 | 0.00 | 0.00 | 80 | 1001.1 |
| 20260507045005 | 8 | 20 | 1.6 | 3.2 | 0.00 | 0.00 | 0.00 | 80 | 1001.2 |
| 20260507044805 | 8 | 30 | 1.6 | 3.2 | 0.00 | 0.00 | 0.00 | 80 | 1001.2 |
| 20260507044605 | 8 | 12 | 1.6 | 3.2 | 0.00 | 0.00 | 0.00 | 80 | 1001.1 |
| 20260507044204 | 8 | 14 | 1.6 | 3.2 | 0.00 | 0.00 | 0.00 | 80 | 1001.2 |
| 20260507043804 | 8 | 326 | 0.0 | 1.6 | 0.00 | 0.00 | 0.00 | 80 | 1001.2 |
| 20260507043605 | 8 | 66 | 0.0 | 1.6 | 0.00 | 0.00 | 0.00 | 80 | 1001.1 |
| 20260507043405 | 8 | 43 | 0.0 | 1.6 | 0.00 | 0.00 | 0.00 | 80 | 1001.1 |
| 20260507043205 | 8 | 49 | 0.0 | 1.6 | 0.00 | 0.00 | 0.00 | 80 | 1001.3 |
| 20260507043004 | 8 | 49 | 0.0 | 1.6 | 0.00 | 0.00 | 0.00 | 80 | 1001.0 |
| 20260507042805 | 8 | 46 | 0.0 | 1.6 | 0.00 | 0.00 | 0.00 | 80 | 1001.2 |
| 20260507042605 | 8 | 20 | 0.0 | 1.6 | 0.00 | 0.00 | 0.00 | 80 | 1001.0 |
| 20260507042404 | 8 | 23 | 0.0 | 1.6 | 0.00 | 0.00 | 0.00 | 80 | 1001.1 |
| 20260507042204 | 8 | 37 | 0.0 | 1.6 | 0.00 | 0.00 | 0.00 | 80 | 1001.1 |
| 20260507042005 | 8 | 62 | 0.0 | 1.6 | 0.00 | 0.00 | 0.00 | 80 | 1001.2 |
| 20260507041805 | 8 | 72 | 0.0 | 3.2 | 0.00 | 0.00 | 0.00 | 80 | 1001.2 |
| 20260507041405 | 8 | 61 | 0.0 | 3.2 | 0.00 | 0.00 | 0.00 | 80 | 1001.1 |
| 20260507041005 | 8 | 54 | 0.0 | 3.2 | 0.00 | 0.00 | 0.00 | 80 | 1001.0 |
| 20260507040405 | 8 | 25 | 0.0 | 1.6 | 0.00 | 0.00 | 0.00 | 80 | 1001.0 |
| 20260507040205 | 8 | 25 | 0.0 | 1.6 | 0.00 | 0.00 | 0.00 | 80 | 1001.0 |
| 20260507035805 | 8 | 58 | 0.0 | 1.6 | 0.00 | 0.00 | 0.00 | 79 | 1001.1 |
| 20260507035604 | 8 | 19 | 0.0 | 3.2 | 0.00 | 0.00 | 0.00 | 79 | 1001.0 |
| 20260507035405 | 8 | 14 | 0.0 | 3.2 | 0.00 | 0.00 | 0.00 | 79 | 1001.0 |
| 20260507035205 | 8 | 29 | 1.6 | 3.2 | 0.00 | 0.00 | 0.00 | 79 | 1001.2 |
| 20260507035004 | 8 | 29 | 1.6 | 3.2 | 0.00 | 0.00 | 0.00 | 79 | 1001.0 |
| 20260507034804 | 8 | 29 | 1.6 | 3.2 | 0.00 | 0.00 | 0.00 | 79 | 1001.0 |
| 20260507034605 | 8 | 26 | 1.6 | 3.2 | 0.00 | 0.00 | 0.00 | 79 | 1000.9 |
| 20260507034405 | 8 | 32 | 0.0 | 3.2 | 0.00 | 0.00 | 0.00 | 79 | 1000.9 |
| 20260507034205 | 8 | 7 | 0.0 | 1.6 | 0.00 | 0.00 | 0.00 | 79 | 1001.0 |
| 20260507034004 | 8 | 11 | 0.0 | 1.6 | 0.00 | 0.00 | 0.00 | 79 | 1001.0 |
| 20260507033804 | 8 | 15 | 0.0 | 1.6 | 0.00 | 0.00 | 0.00 | 79 | 1000.9 |
| 20260507033604 | 8 | 44 | 0.0 | 3.2 | 0.00 | 0.00 | 0.00 | 79 | 1000.9 |
| 20260507033405 | 8 | 47 | 0.0 | 3.2 | 0.00 | 0.00 | 0.00 | 79 | 1001.0 |
| 20260507033205 | 8 | 60 | 0.0 | 3.2 | 0.00 | 0.00 | 0.00 | 79 | 1000.9 |
| 20260507033004 | 8 | 63 | 0.0 | 3.2 | 0.00 | 0.00 | 0.00 | 79 | 1001.0 |
| 20260507032805 | 8 | 59 | 0.0 | 3.2 | 0.00 | 0.00 | 0.00 | 79 | 1001.0 |
| 20260507032605 | 8 | 97 | 0.0 | 3.2 | 0.00 | 0.00 | 0.00 | 79 | 1001.0 |
| 20260507032404 | 8 | 100 | 0.0 | 3.2 | 0.00 | 0.00 | 0.00 | 79 | 1000.9 |
| 20260507032205 | 8 | 100 | 0.0 | 3.2 | 0.00 | 0.00 | 0.00 | 79 | 1000.9 |
| 20260507032004 | 8 | 100 | 0.0 | 3.2 | 0.00 | 0.00 | 0.00 | 79 | 1000.8 |
| 20260507031804 | 8 | 173 | 0.0 | 3.2 | 0.00 | 0.00 | 0.00 | 79 | 1000.9 |
| 20260507031604 | 8 | 0 | 0.0 | 0.0 | 0.00 | 0.00 | 0.00 | 79 | 1000.9 |
| 20260507031404 | 8 | 162 | 0.0 | 1.6 | 0.00 | 0.00 | 0.00 | 79 | 1001.0 |
| 20260507031205 | 8 | 112 | 0.0 | 1.6 | 0.00 | 0.00 | 0.00 | 78 | 1001.0 |
| 20260507031005 | 8 | 112 | 0.0 | 1.6 | 0.00 | 0.00 | 0.00 | 78 | 1000.9 |
| 20260507030805 | 8 | 112 | 0.0 | 1.6 | 0.00 | 0.00 | 0.00 | 78 | 1000.9 |
| 20260507030604 | 8 | 112 | 0.0 | 1.6 | 0.00 | 0.00 | 0.00 | 78 | 1001.0 |
| 20260507030204 | 8 | 270 | 0.0 | 1.6 | 0.00 | 0.00 | 0.00 | 78 | 1000.9 |
| 20260507025805 | 8 | 333 | 0.0 | 1.6 | 0.00 | 0.00 | 0.00 | 78 | 1000.9 |
| 20260507025404 | 8 | 15 | 0.0 | 1.6 | 0.00 | 0.00 | 0.00 | 78 | 1001.1 |
| 20260507025205 | 8 | 9 | 0.0 | 1.6 | 0.00 | 0.00 | 0.00 | 78 | 1001.1 |
| 20260507025005 | 8 | 12 | 0.0 | 1.6 | 0.00 | 0.00 | 0.00 | 78 | 1000.9 |
| 20260507024804 | 8 | 20 | 0.0 | 1.6 | 0.00 | 0.00 | 0.00 | 79 | 1001.0 |
| 20260507024604 | 8 | 20 | 0.0 | 1.6 | 0.00 | 0.00 | 0.00 | 79 | 1001.0 |
| 20260507024404 | 8 | 1 | 0.0 | 1.6 | 0.00 | 0.00 | 0.00 | 79 | 1000.9 |
| 20260507024205 | 8 | 0 | 0.0 | 0.0 | 0.00 | 0.00 | 0.00 | 79 | 1001.0 |
| 20260507024005 | 8 | 0 | 0.0 | 0.0 | 0.00 | 0.00 | 0.00 | 79 | 1001.1 |
| 20260507023605 | 8 | 25 | 0.0 | 3.2 | 0.00 | 0.00 | 0.00 | 79 | 1001.0 |
| 20260507023404 | 8 | 45 | 1.6 | 3.2 | 0.00 | 0.00 | 0.00 | 79 | 1001.0 |
| 20260507023005 | 8 | 352 | 1.6 | 3.2 | 0.00 | 0.00 | 0.00 | 79 | 1001.0 |
| 20260507022805 | 8 | 349 | 1.6 | 3.2 | 0.00 | 0.00 | 0.00 | 79 | 1001.1 |
| 20260507022604 | 8 | 2 | 3.2 | 3.2 | 0.00 | 0.00 | 0.00 | 79 | 1001.0 |
| 20260507022404 | 8 | 349 | 3.2 | 3.2 | 0.00 | 0.00 | 0.00 | 79 | 1001.0 |
| 20260507022204 | 8 | 42 | 1.6 | 3.2 | 0.00 | 0.00 | 0.00 | 79 | 1001.0 |
| 20260507022005 | 8 | 100 | 1.6 | 3.2 | 0.00 | 0.00 | 0.00 | 79 | 1001.0 |
| 20260507021604 | 8 | 63 | 0.0 | 3.2 | 0.00 | 0.00 | 0.00 | 79 | 1000.9 |
| 20260507021404 | 8 | 81 | 0.0 | 3.2 | 0.00 | 0.00 | 0.00 | 79 | 1000.9 |
| 20260507021204 | 8 | 99 | 0.0 | 3.2 | 0.00 | 0.00 | 0.00 | 79 | 1000.9 |
| 20260507021004 | 8 | 93 | 0.0 | 3.2 | 0.00 | 0.00 | 0.00 | 79 | 1000.7 |
| 20260507020805 | 8 | 93 | 0.0 | 3.2 | 0.00 | 0.00 | 0.00 | 79 | 1001.0 |
| 20260507020404 | 8 | 66 | 0.0 | 1.6 | 0.00 | 0.00 | 0.00 | 80 | 1000.8 |
| 20260507020204 | 8 | 58 | 0.0 | 1.6 | 0.00 | 0.00 | 0.00 | 80 | 1000.8 |
| 20260507020004 | 8 | 68 | 0.0 | 1.6 | 0.00 | 0.00 | 0.00 | 80 | 1000.9 |
| 20260507015805 | 8 | 68 | 0.0 | 1.6 | 0.00 | 0.00 | 0.00 | 80 | 1000.9 |
| 20260507015605 | 8 | 90 | 0.0 | 1.6 | 0.00 | 0.00 | 0.00 | 80 | 1000.9 |
| 20260507015404 | 8 | 90 | 0.0 | 1.6 | 0.00 | 0.00 | 0.00 | 80 | 1001.0 |
| 20260507015204 | 8 | 0 | 0.0 | 0.0 | 0.00 | 0.00 | 0.00 | 80 | 1001.0 |
| 20260507015004 | 8 | 0 | 0.0 | 0.0 | 0.00 | 0.00 | 0.00 | 80 | 1001.0 |
| 20260507014805 | 8 | 0 | 0.0 | 0.0 | 0.00 | 0.00 | 0.00 | 80 | 1000.9 |
| 20260507014605 | 8 | 0 | 0.0 | 0.0 | 0.00 | 0.00 | 0.00 | 80 | 1001.0 |
| 20260507014404 | 8 | 0 | 0.0 | 0.0 | 0.00 | 0.00 | 0.00 | 80 | 1001.0 |
| 20260507014004 | 8 | 0 | 0.0 | 0.0 | 0.00 | 0.00 | 0.00 | 80 | 1000.9 |
| 20260507013805 | 8 | 0 | 0.0 | 0.0 | 0.00 | 0.00 | 0.00 | 80 | 1001.0 |
| 20260507013605 | 8 | 0 | 0.0 | 0.0 | 0.00 | 0.00 | 0.00 | 80 | 1000.9 |
| 20260507013404 | 8 | 0 | 0.0 | 0.0 | 0.00 | 0.00 | 0.00 | 80 | 1001.0 |
| 20260507013205 | 8 | 0 | 0.0 | 0.0 | 0.00 | 0.00 | 0.00 | 80 | 1001.0 |
| 20260507013005 | 8 | 0 | 0.0 | 0.0 | 0.00 | 0.00 | 0.00 | 79 | 1001.0 |
| 20260507012804 | 8 | 0 | 0.0 | 0.0 | 0.00 | 0.00 | 0.00 | 79 | 1000.9 |
| 20260507012604 | 8 | 0 | 0.0 | 0.0 | 0.00 | 0.00 | 0.00 | 79 | 1000.8 |
| 20260507012405 | 8 | 0 | 0.0 | 0.0 | 0.00 | 0.00 | 0.00 | 79 | 1000.9 |
| 20260507012205 | 8 | 29 | 0.0 | 3.2 | 0.00 | 0.00 | 0.00 | 79 | 1000.8 |
| 20260507012005 | 8 | 29 | 0.0 | 3.2 | 0.00 | 0.00 | 0.00 | 79 | 1000.9 |
| 20260507011804 | 8 | 29 | 0.0 | 3.2 | 0.00 | 0.00 | 0.00 | 79 | 1000.9 |
| 20260507011604 | 8 | 29 | 0.0 | 3.2 | 0.00 | 0.00 | 0.00 | 79 | 1000.8 |
| 20260507011204 | 8 | 0 | 0.0 | 0.0 | 0.00 | 0.00 | 0.00 | 79 | 1000.8 |
| 20260507011004 | 8 | 0 | 0.0 | 0.0 | 0.00 | 0.00 | 0.00 | 79 | 1000.9 |
| 20260507010805 | 8 | 0 | 0.0 | 0.0 | 0.00 | 0.00 | 0.00 | 79 | 1000.9 |
| 20260507010605 | 9 | 0 | 0.0 | 0.0 | 0.00 | 0.00 | 0.00 | 79 | 1000.8 |
| 20260507010404 | 9 | 0 | 0.0 | 0.0 | 0.00 | 0.00 | 0.00 | 80 | 1000.8 |
| 20260507010004 | 9 | 0 | 0.0 | 0.0 | 0.00 | 0.00 | 0.00 | 80 | 1000.8 |
| 20260507005805 | 9 | 26 | 0.0 | 3.2 | 0.00 | 0.00 | 0.00 | 80 | 1000.8 |
| 20260507005605 | 9 | 15 | 0.0 | 3.2 | 0.00 | 0.00 | 0.00 | 80 | 1000.8 |
| 20260507005405 | 9 | 13 | 0.0 | 3.2 | 0.00 | 0.00 | 0.00 | 80 | 1000.8 |
| 20260507005004 | 9 | 35 | 1.6 | 3.2 | 0.00 | 0.00 | 0.00 | 80 | 1000.8 |
| 20260507004804 | 9 | 182 | 0.0 | 3.2 | 0.00 | 0.00 | 0.00 | 80 | 1000.8 |
| 20260507004605 | 9 | 170 | 0.0 | 3.2 | 0.00 | 0.00 | 0.00 | 80 | 1000.9 |
| 20260507004404 | 9 | 167 | 0.0 | 3.2 | 0.00 | 0.00 | 0.00 | 80 | 1000.8 |
| 20260507004204 | 9 | 181 | 0.0 | 3.2 | 0.00 | 0.00 | 0.00 | 80 | 1000.8 |
| 20260507004005 | 9 | 181 | 0.0 | 3.2 | 0.00 | 0.00 | 0.00 | 80 | 1000.9 |
| 20260507003804 | 9 | 45 | 0.0 | 1.6 | 0.00 | 0.00 | 0.00 | 80 | 1000.9 |
| 20260507003604 | 9 | 337 | 0.0 | 1.6 | 0.00 | 0.00 | 0.00 | 80 | 1001.1 |
| 20260507003405 | 9 | 120 | 0.0 | 3.2 | 0.00 | 0.00 | 0.00 | 80 | 1000.9 |
| 20260507003205 | 9 | 118 | 0.0 | 3.2 | 0.00 | 0.00 | 0.00 | 81 | 1001.0 |
| 20260507002804 | 9 | 126 | 1.6 | 3.2 | 0.00 | 0.00 | 0.00 | 81 | 1000.8 |
| 20260507002604 | 9 | 118 | 0.0 | 3.2 | 0.00 | 0.00 | 0.00 | 81 | 1001.1 |
| 20260507002404 | 9 | 75 | 0.0 | 1.6 | 0.00 | 0.00 | 0.00 | 81 | 1000.9 |
| 20260507002205 | 9 | 68 | 0.0 | 1.6 | 0.00 | 0.00 | 0.00 | 81 | 1000.9 |
| 20260507002004 | 9 | 1 | 0.0 | 1.6 | 0.00 | 0.00 | 0.00 | 81 | 1001.1 |
| 20260507001804 | 9 | 76 | 0.0 | 1.6 | 0.00 | 0.00 | 0.00 | 81 | 1000.9 |
| 20260507001604 | 9 | 68 | 0.0 | 1.6 | 0.00 | 0.00 | 0.00 | 81 | 1000.9 |
| 20260507001405 | 9 | 43 | 0.0 | 1.6 | 0.00 | 0.00 | 0.00 | 81 | 1000.9 |
| 20260507001204 | 9 | 42 | 0.0 | 1.6 | 0.00 | 0.00 | 0.00 | 81 | 1001.1 |
| 20260507000605 | 9 | 262 | 0.0 | 1.6 | 0.00 | 0.00 | 0.00 | 81 | 1001.0 |
| 20260507000205 | 9 | 270 | 0.0 | 1.6 | 0.00 | 0.00 | 0.00 | 82 | 1001.1 |
| 20260506235604 | 9 | 7 | 1.6 | 3.2 | 0.00 | 0.00 | 0.00 | 82 | 1001.1 |
| 20260506235405 | 9 | 7 | 1.6 | 3.2 | 0.00 | 0.00 | 0.00 | 82 | 1001.0 |
| 20260506235204 | 9 | 358 | 1.6 | 3.2 | 0.00 | 0.00 | 0.00 | 82 | 1000.9 |
| 20260506235004 | 9 | 337 | 0.0 | 3.2 | 0.00 | 0.00 | 0.00 | 82 | 1001.0 |
| 20260506234804 | 9 | 341 | 0.0 | 3.2 | 0.00 | 0.00 | 0.00 | 82 | 1001.0 |
| 20260506234605 | 9 | 337 | 0.0 | 3.2 | 0.00 | 0.00 | 0.00 | 82 | 1001.0 |
| 20260506234405 | 9 | 337 | 0.0 | 3.2 | 0.00 | 0.00 | 0.00 | 82 | 1001.0 |
| 20260506233605 | 9 | 344 | 1.6 | 3.2 | 0.00 | 0.00 | 0.00 | 82 | 1001.1 |
| 20260506233405 | 9 | 335 | 1.6 | 3.2 | 0.00 | 0.00 | 0.00 | 82 | 1001.0 |
| 20260506233205 | 9 | 330 | 1.6 | 3.2 | 0.00 | 0.00 | 0.00 | 82 | 1001.0 |
| 20260506233004 | 9 | 321 | 1.6 | 3.2 | 0.00 | 0.00 | 0.00 | 82 | 1001.1 |
| 20260506232804 | 9 | 325 | 3.2 | 3.2 | 0.00 | 0.00 | 0.00 | 82 | 1001.1 |
| 20260506232404 | 9 | 323 | 1.6 | 3.2 | 0.00 | 0.00 | 0.00 | 82 | 1001.1 |
| 20260506232005 | 9 | 345 | 0.0 | 3.2 | 0.00 | 0.00 | 0.00 | 82 | 1001.1 |
| 20260506231804 | 9 | 1 | 0.0 | 3.2 | 0.00 | 0.00 | 0.00 | 82 | 1001.1 |
| 20260506231404 | 9 | 327 | 1.6 | 3.2 | 0.00 | 0.00 | 0.00 | 82 | 1001.0 |
| 20260506231204 | 9 | 325 | 1.6 | 3.2 | 0.00 | 0.00 | 0.00 | 82 | 1001.1 |
| 20260506231004 | 9 | 319 | 3.2 | 3.2 | 0.00 | 0.00 | 0.00 | 82 | 1001.1 |
| 20260506230604 | 9 | 315 | 1.6 | 3.2 | 0.00 | 0.00 | 0.00 | 82 | 1001.2 |
| 20260506230404 | 9 | 317 | 1.6 | 3.2 | 0.00 | 0.00 | 0.00 | 82 | 1001.2 |
| 20260506225805 | 9 | 331 | 1.6 | 3.2 | 0.00 | 0.00 | 0.00 | 82 | 1001.2 |
| 20260506225604 | 9 | 340 | 3.2 | 4.8 | 0.00 | 0.00 | 0.00 | 82 | 1001.2 |
| 20260506225404 | 9 | 342 | 3.2 | 4.8 | 0.00 | 0.00 | 0.00 | 82 | 1001.3 |
| 20260506225205 | 9 | 343 | 4.8 | 4.8 | 0.00 | 0.00 | 0.00 | 82 | 1001.1 |
| 20260506225004 | 9 | 342 | 4.8 | 4.8 | 0.00 | 0.00 | 0.00 | 82 | 1001.1 |
| 20260506224804 | 9 | 345 | 4.8 | 4.8 | 0.00 | 0.00 | 0.00 | 82 | 1001.2 |
| 20260506224604 | 9 | 346 | 4.8 | 4.8 | 0.00 | 0.00 | 0.00 | 82 | 1001.2 |
| 20260506224405 | 9 | 346 | 3.2 | 4.8 | 0.00 | 0.00 | 0.00 | 82 | 1001.1 |
| 20260506223604 | 9 | 338 | 4.8 | 6.4 | 0.00 | 0.00 | 0.00 | 82 | 1001.1 |
| 20260506223405 | 9 | 336 | 4.8 | 6.4 | 0.00 | 0.00 | 0.00 | 81 | 1001.1 |
| 20260506223205 | 9 | 331 | 4.8 | 6.4 | 0.00 | 0.00 | 0.00 | 81 | 1001.0 |
| 20260506222405 | 9 | 337 | 3.2 | 4.8 | 0.00 | 0.00 | 0.00 | 81 | 1001.2 |
| 20260506222204 | 9 | 339 | 3.2 | 4.8 | 0.00 | 0.00 | 0.00 | 81 | 1001.1 |
| 20260506221604 | 9 | 339 | 1.6 | 3.2 | 0.00 | 0.00 | 0.00 | 81 | 1001.1 |
| 20260506221404 | 9 | 345 | 3.2 | 3.2 | 0.00 | 0.00 | 0.00 | 81 | 1001.1 |
| 20260506221205 | 9 | 343 | 3.2 | 3.2 | 0.00 | 0.00 | 0.00 | 81 | 1001.1 |
| 20260506221005 | 9 | 347 | 3.2 | 4.8 | 0.00 | 0.00 | 0.00 | 81 | 1001.0 |
| 20260506220804 | 9 | 351 | 3.2 | 6.4 | 0.00 | 0.00 | 0.00 | 81 | 1001.0 |
| 20260506220605 | 9 | 349 | 4.8 | 8.0 | 0.00 | 0.00 | 0.00 | 81 | 1001.0 |
| 20260506220405 | 9 | 351 | 4.8 | 8.0 | 0.00 | 0.00 | 0.00 | 81 | 1001.0 |
| 20260506220004 | 9 | 345 | 4.8 | 8.0 | 0.00 | 0.00 | 0.00 | 81 | 1000.9 |
| 20260506215804 | 9 | 348 | 6.4 | 8.0 | 0.00 | 0.00 | 0.00 | 81 | 1001.1 |
| 20260506215605 | 9 | 348 | 6.4 | 8.0 | 0.00 | 0.00 | 0.00 | 81 | 1000.9 |
| 20260506215405 | 9 | 341 | 6.4 | 8.0 | 0.00 | 0.00 | 0.00 | 81 | 1000.8 |
| 20260506215204 | 9 | 334 | 6.4 | 9.7 | 0.00 | 0.00 | 0.00 | 81 | 1000.8 |
| 20260506215005 | 9 | 338 | 6.4 | 9.7 | 0.00 | 0.00 | 0.00 | 81 | 1000.8 |
| 20260506214804 | 9 | 336 | 6.4 | 9.7 | 0.00 | 0.00 | 0.00 | 80 | 1000.5 |
| 20260506214605 | 9 | 329 | 6.4 | 9.7 | 0.00 | 0.00 | 0.00 | 80 | 1000.7 |
| 20260506214204 | 9 | 338 | 4.8 | 9.7 | 0.00 | 0.00 | 0.00 | 80 | 1000.7 |
| 20260506214004 | 9 | 330 | 3.2 | 4.8 | 0.00 | 0.00 | 0.00 | 80 | 1000.6 |
| 20260506213805 | 9 | 330 | 3.2 | 4.8 | 0.00 | 0.00 | 0.00 | 80 | 1000.7 |
| 20260506213604 | 9 | 340 | 4.8 | 6.4 | 0.00 | 0.00 | 0.00 | 80 | 1000.6 |
| 20260506213404 | 9 | 343 | 4.8 | 6.4 | 0.00 | 0.00 | 0.00 | 80 | 1000.6 |
| 20260506213006 | 9 | 353 | 6.4 | 8.0 | 0.00 | 0.00 | 0.00 | 80 | 1000.6 |
| 20260506212804 | 9 | 350 | 6.4 | 9.7 | 0.00 | 0.00 | 0.00 | 80 | 1000.6 |
| 20260506212604 | 9 | 342 | 6.4 | 9.7 | 0.00 | 0.00 | 0.00 | 80 | 1000.7 |
| 20260506212205 | 9 | 337 | 6.4 | 9.7 | 0.00 | 0.00 | 0.00 | 80 | 1000.7 |
| 20260506212005 | 9 | 327 | 6.4 | 9.7 | 0.00 | 0.00 | 0.00 | 80 | 1000.7 |
| 20260506211605 | 9 | 330 | 4.8 | 6.4 | 0.00 | 0.00 | 0.00 | 80 | 1000.5 |
| 20260506211404 | 9 | 330 | 6.4 | 8.0 | 0.00 | 0.00 | 0.00 | 80 | 1000.6 |
| 20260506211204 | 9 | 329 | 6.4 | 8.0 | 0.00 | 0.00 | 0.00 | 80 | 1000.5 |
| 20260506211005 | 9 | 338 | 6.4 | 9.7 | 0.00 | 0.00 | 0.00 | 80 | 1000.6 |
| 20260506210804 | 9 | 345 | 8.0 | 9.7 | 0.00 | 0.00 | 0.00 | 80 | 1000.6 |
| 20260506210404 | 9 | 344 | 8.0 | 11.3 | 0.00 | 0.00 | 0.00 | 80 | 1000.5 |
| 20260506210005 | 9 | 342 | 8.0 | 11.3 | 0.00 | 0.00 | 0.00 | 80 | 1000.5 |
| 20260506205804 | 9 | 340 | 8.0 | 11.3 | 0.00 | 0.00 | 0.00 | 80 | 1000.6 |
| 20260506205605 | 9 | 340 | 6.4 | 11.3 | 0.00 | 0.00 | 0.00 | 79 | 1000.5 |
| 20260506205405 | 9 | 335 | 6.4 | 8.0 | 0.00 | 0.00 | 0.00 | 79 | 1000.3 |
| 20260506205204 | 9 | 339 | 6.4 | 8.0 | 0.00 | 0.00 | 0.00 | 79 | 1000.4 |
| 20260506205005 | 10 | 338 | 6.4 | 8.0 | 0.00 | 0.00 | 0.00 | 79 | 1000.4 |
| 20260506204805 | 10 | 340 | 6.4 | 6.4 | 0.00 | 0.00 | 0.00 | 79 | 1000.4 |
| 20260506204604 | 10 | 348 | 6.4 | 6.4 | 0.00 | 0.00 | 0.00 | 78 | 1000.5 |
| 20260506204404 | 10 | 353 | 6.4 | 6.4 | 0.00 | 0.00 | 0.00 | 78 | 1000.5 |
| 20260506204205 | 10 | 350 | 4.8 | 6.4 | 0.00 | 0.00 | 0.00 | 78 | 1000.4 |
| 20260506204004 | 10 | 350 | 6.4 | 9.7 | 0.00 | 0.00 | 0.00 | 78 | 1000.4 |
| 20260506203804 | 10 | 342 | 6.4 | 9.7 | 0.00 | 0.00 | 0.00 | 78 | 1000.3 |
| 20260506203605 | 10 | 343 | 8.0 | 12.9 | 0.00 | 0.00 | 0.00 | 77 | 1000.4 |
| 20260506203404 | 10 | 343 | 8.0 | 12.9 | 0.00 | 0.00 | 0.00 | 77 | 1000.4 |
| 20260506203205 | 10 | 344 | 8.0 | 12.9 | 0.00 | 0.00 | 0.00 | 77 | 1000.3 |
| 20260506203005 | 10 | 344 | 8.0 | 12.9 | 0.00 | 0.00 | 0.00 | 77 | 1000.2 |
| 20260506202804 | 10 | 342 | 8.0 | 12.9 | 0.00 | 0.00 | 0.00 | 76 | 1000.2 |
| 20260506202605 | 10 | 340 | 6.4 | 9.7 | 0.00 | 0.00 | 0.00 | 76 | 1000.3 |
| 20260506202404 | 10 | 344 | 6.4 | 9.7 | 0.00 | 0.00 | 0.00 | 76 | 1000.4 |
| 20260506202204 | 10 | 351 | 6.4 | 6.4 | 0.00 | 0.00 | 0.00 | 75 | 1000.3 |
| 20260506202005 | 10 | 352 | 6.4 | 6.4 | 0.00 | 0.00 | 0.00 | 75 | 1000.2 |
| 20260506201804 | 10 | 359 | 6.4 | 6.4 | 0.00 | 0.00 | 0.00 | 75 | 1000.4 |
| 20260506201604 | 10 | 357 | 6.4 | 11.3 | 0.00 | 0.00 | 0.00 | 75 | 1000.3 |
| 20260506201405 | 10 | 352 | 6.4 | 11.3 | 0.00 | 0.00 | 0.00 | 75 | 1000.2 |
| 20260506201204 | 10 | 344 | 6.4 | 11.3 | 0.00 | 0.00 | 0.00 | 74 | 1000.3 |
| 20260506201005 | 10 | 348 | 6.4 | 11.3 | 0.00 | 0.00 | 0.00 | 74 | 1000.2 |
| 20260506200605 | 10 | 343 | 8.0 | 12.9 | 0.00 | 0.00 | 0.00 | 74 | 1000.2 |
| 20260506200404 | 10 | 348 | 9.7 | 12.9 | 0.00 | 0.00 | 0.00 | 74 | 1000.2 |
| 20260506200005 | 10 | 348 | 9.7 | 12.9 | 0.00 | 0.00 | 0.00 | 74 | 1000.2 |
| 20260506195804 | 10 | 347 | 9.7 | 12.9 | 0.00 | 0.00 | 0.00 | 74 | 1000.2 |
| 20260506195604 | 10 | 344 | 9.7 | 12.9 | 0.00 | 0.00 | 0.00 | 73 | 1000.1 |
| 20260506195405 | 10 | 341 | 11.3 | 12.9 | 0.00 | 0.00 | 0.00 | 73 | 1000.3 |
| 20260506195204 | 10 | 337 | 11.3 | 12.9 | 0.00 | 0.00 | 0.00 | 73 | 1000.1 |
| 20260506195004 | 10 | 337 | 11.3 | 17.7 | 0.00 | 0.00 | 0.00 | 73 | 1000.1 |
| 20260506194805 | 10 | 341 | 11.3 | 17.7 | 0.00 | 0.00 | 0.00 | 72 | 1000.1 |
| 20260506194604 | 10 | 348 | 11.3 | 17.7 | 0.00 | 0.00 | 0.00 | 72 | 1000.0 |
| 20260506194404 | 10 | 350 | 11.3 | 17.7 | 0.00 | 0.00 | 0.00 | 72 | 1000.0 |
| 20260506194205 | 10 | 353 | 11.3 | 17.7 | 0.00 | 0.00 | 0.00 | 71 | 1000.1 |
| 20260506194005 | 10 | 347 | 9.7 | 17.7 | 0.00 | 0.00 | 0.00 | 71 | 1000.1 |
| 20260506193804 | 10 | 346 | 9.7 | 12.9 | 0.00 | 0.00 | 0.00 | 71 | 999.9 |
| 20260506193604 | 10 | 347 | 9.7 | 16.1 | 0.00 | 0.00 | 0.00 | 71 | 999.9 |
| 20260506193206 | 10 | 343 | 11.3 | 16.1 | 0.00 | 0.00 | 0.00 | 70 | 1000.0 |
| 20260506193004 | 10 | 342 | 11.3 | 16.1 | 0.00 | 0.00 | 0.00 | 70 | 1000.0 |
| 20260506192804 | 10 | 340 | 9.7 | 16.1 | 0.00 | 0.00 | 0.00 | 70 | 999.9 |
| 20260506192605 | 11 | 334 | 9.7 | 12.9 | 0.00 | 0.00 | 0.00 | 70 | 999.9 |
| 20260506192404 | 11 | 336 | 9.7 | 12.9 | 0.00 | 0.00 | 0.00 | 70 | 999.9 |
| 20260506192005 | 11 | 340 | 8.0 | 11.3 | 0.00 | 0.00 | 0.00 | 69 | 999.9 |
| 20260506191805 | 11 | 341 | 8.0 | 11.3 | 0.00 | 0.00 | 0.00 | 69 | 999.9 |
| 20260506191604 | 11 | 335 | 8.0 | 12.9 | 0.00 | 0.00 | 0.00 | 69 | 999.8 |
| 20260506191404 | 11 | 331 | 9.7 | 12.9 | 0.00 | 0.00 | 0.00 | 68 | 999.8 |
| 20260506191205 | 11 | 329 | 9.7 | 12.9 | 0.00 | 0.00 | 0.00 | 68 | 999.8 |
| 20260506191004 | 11 | 329 | 9.7 | 12.9 | 0.00 | 0.00 | 0.00 | 68 | 999.7 |
| 20260506190604 | 11 | 325 | 9.7 | 12.9 | 0.00 | 0.00 | 0.00 | 67 | 999.7 |
| 20260506190205 | 11 | 334 | 8.0 | 9.7 | 0.00 | 0.00 | 0.00 | 66 | 999.8 |
| 20260506185804 | 11 | 351 | 8.0 | 9.7 | 0.00 | 0.00 | 0.00 | 65 | 999.6 |
| 20260506185605 | 11 | 352 | 8.0 | 9.7 | 0.00 | 0.00 | 0.00 | 65 | 999.7 |
| 20260506185404 | 11 | 351 | 8.0 | 9.7 | 0.00 | 0.00 | 0.00 | 65 | 999.6 |
| 20260506185204 | 11 | 342 | 6.4 | 9.7 | 0.00 | 0.00 | 0.00 | 64 | 999.6 |
| 20260506184605 | 11 | 336 | 8.0 | 11.3 | 0.00 | 0.00 | 0.00 | 63 | 999.6 |
| 20260506184404 | 11 | 339 | 8.0 | 14.5 | 0.00 | 0.00 | 0.00 | 63 | 999.6 |
| 20260506184204 | 11 | 340 | 9.7 | 14.5 | 0.00 | 0.00 | 0.00 | 63 | 999.5 |
| 20260506184005 | 11 | 336 | 9.7 | 14.5 | 0.00 | 0.00 | 0.00 | 63 | 999.6 |
| 20260506183804 | 11 | 330 | 11.3 | 14.5 | 0.00 | 0.00 | 0.00 | 63 | 999.4 |
| 20260506183604 | 11 | 333 | 11.3 | 14.5 | 0.00 | 0.00 | 0.00 | 63 | 999.4 |
| 20260506183404 | 11 | 335 | 9.7 | 14.5 | 0.00 | 0.00 | 0.00 | 63 | 999.5 |
| 20260506182804 | 12 | 349 | 9.7 | 12.9 | 0.00 | 0.00 | 0.00 | 62 | 999.3 |
| 20260506182604 | 12 | 350 | 9.7 | 12.9 | 0.00 | 0.00 | 0.00 | 62 | 999.4 |
| 20260506182404 | 12 | 347 | 9.7 | 12.9 | 0.00 | 0.00 | 0.00 | 61 | 999.3 |
| 20260506182204 | 12 | 347 | 9.7 | 12.9 | 0.00 | 0.00 | 0.00 | 61 | 999.3 |
| 20260506181606 | 12 | 351 | 8.0 | 12.9 | 0.00 | 0.00 | 0.00 | 61 | 999.2 |
| 20260506181404 | 12 | 348 | 9.7 | 12.9 | 0.00 | 0.00 | 0.00 | 61 | 999.3 |
| 20260506181204 | 12 | 339 | 9.7 | 12.9 | 0.00 | 0.00 | 0.00 | 61 | 999.3 |
| 20260506181004 | 12 | 335 | 9.7 | 12.9 | 0.00 | 0.00 | 0.00 | 61 | 999.2 |
| 20260506180804 | 12 | 327 | 9.7 | 12.9 | 0.00 | 0.00 | 0.00 | 60 | 999.3 |
| 20260506180404 | 12 | 318 | 8.0 | 11.3 | 0.00 | 0.00 | 0.00 | 58 | 999.1 |
| 20260506180205 | 12 | 323 | 8.0 | 11.3 | 0.00 | 0.00 | 0.00 | 58 | 999.0 |
| 20260506180005 | 12 | 318 | 8.0 | 11.3 | 0.00 | 0.00 | 0.00 | 58 | 999.0 |
| 20260506175804 | 12 | 319 | 8.0 | 11.3 | 0.00 | 0.00 | 0.00 | 58 | 999.0 |
| 20260506175605 | 12 | 317 | 9.7 | 17.7 | 0.00 | 0.00 | 0.00 | 59 | 998.9 |
| 20260506175404 | 12 | 322 | 9.7 | 17.7 | 0.00 | 0.00 | 0.00 | 59 | 998.8 |
| 20260506175204 | 12 | 317 | 11.3 | 17.7 | 0.00 | 0.00 | 0.00 | 58 | 998.9 |
| 20260506175004 | 12 | 329 | 11.3 | 17.7 | 0.00 | 0.00 | 0.00 | 58 | 998.8 |
| 20260506174804 | 12 | 325 | 12.9 | 17.7 | 0.00 | 0.00 | 0.00 | 57 | 998.6 |
| 20260506174604 | 12 | 329 | 12.9 | 17.7 | 0.00 | 0.00 | 0.00 | 57 | 998.7 |
| 20260506174205 | 12 | 328 | 11.3 | 17.7 | 0.00 | 0.00 | 0.00 | 56 | 998.6 |
| 20260506174004 | 12 | 323 | 11.3 | 17.7 | 0.00 | 0.00 | 0.00 | 56 | 998.5 |
| 20260506173804 | 12 | 340 | 9.7 | 14.5 | 0.00 | 0.00 | 0.00 | 56 | 998.8 |
| 20260506173404 | 12 | 346 | 9.7 | 11.3 | 0.00 | 0.00 | 0.00 | 57 | 998.8 |
| 20260506173004 | 12 | 339 | 9.7 | 12.9 | 0.00 | 0.00 | 0.00 | 56 | 998.7 |
| 20260506172804 | 12 | 344 | 9.7 | 14.5 | 0.00 | 0.00 | 0.00 | 56 | 998.6 |
| 20260506172604 | 12 | 347 | 11.3 | 16.1 | 0.00 | 0.00 | 0.00 | 56 | 998.8 |
| 20260506172404 | 12 | 338 | 11.3 | 16.1 | 0.00 | 0.00 | 0.00 | 56 | 998.7 |
| 20260506172004 | 12 | 345 | 12.9 | 16.1 | 0.00 | 0.00 | 0.00 | 55 | 998.7 |
| 20260506171805 | 12 | 345 | 12.9 | 16.1 | 0.00 | 0.00 | 0.00 | 54 | 998.5 |
| 20260506171604 | 12 | 343 | 11.3 | 19.3 | 0.00 | 0.00 | 0.00 | 55 | 998.7 |
| 20260506171404 | 12 | 342 | 11.3 | 19.3 | 0.00 | 0.00 | 0.00 | 55 | 998.6 |
| 20260506171205 | 12 | 336 | 11.3 | 19.3 | 0.00 | 0.00 | 0.00 | 55 | 998.7 |
| 20260506171004 | 12 | 335 | 11.3 | 19.3 | 0.00 | 0.00 | 0.00 | 55 | 998.6 |
| 20260506170804 | 12 | 335 | 12.9 | 19.3 | 0.00 | 0.00 | 0.00 | 55 | 998.7 |
| 20260506170404 | 12 | 330 | 11.3 | 17.7 | 0.00 | 0.00 | 0.00 | 55 | 998.6 |
| 20260506170204 | 12 | 332 | 12.9 | 17.7 | 0.00 | 0.00 | 0.00 | 55 | 998.6 |
| 20260506170005 | 12 | 333 | 11.3 | 17.7 | 0.00 | 0.00 | 0.00 | 55 | 998.5 |
| 20260506165804 | 12 | 326 | 9.7 | 14.5 | 0.00 | 0.00 | 0.00 | 55 | 998.6 |
| 20260506165604 | 12 | 327 | 8.0 | 14.5 | 0.00 | 0.00 | 0.00 | 55 | 998.6 |
| 20260506165405 | 12 | 326 | 8.0 | 14.5 | 0.00 | 0.00 | 0.00 | 55 | 998.6 |
| 20260506165204 | 12 | 328 | 8.0 | 14.5 | 0.00 | 0.00 | 0.00 | 55 | 998.7 |
| 20260506165005 | 12 | 334 | 9.7 | 14.5 | 0.00 | 0.00 | 0.00 | 55 | 998.6 |
| 20260506164804 | 12 | 333 | 9.7 | 14.5 | 0.00 | 0.00 | 0.00 | 55 | 998.6 |
| 20260506164204 | 12 | 338 | 8.0 | 14.5 | 0.00 | 0.00 | 0.00 | 55 | 998.6 |
| 20260506164005 | 12 | 331 | 8.0 | 12.9 | 0.00 | 0.00 | 0.00 | 55 | 998.6 |
| 20260506163804 | 12 | 333 | 8.0 | 12.9 | 0.00 | 0.00 | 0.00 | 55 | 998.7 |
| 20260506163604 | 12 | 340 | 9.7 | 12.9 | 0.00 | 0.00 | 0.00 | 54 | 998.6 |
| 20260506163404 | 12 | 340 | 8.0 | 12.9 | 0.00 | 0.00 | 0.00 | 54 | 998.7 |
| 20260506163204 | 12 | 344 | 8.0 | 12.9 | 0.00 | 0.00 | 0.00 | 54 | 998.7 |
| 20260506163004 | 12 | 349 | 6.4 | 11.3 | 0.00 | 0.00 | 0.00 | 54 | 998.7 |
| 20260506162804 | 12 | 7 | 6.4 | 11.3 | 0.00 | 0.00 | 0.00 | 55 | 998.7 |
| 20260506162605 | 12 | 351 | 4.8 | 11.3 | 0.00 | 0.00 | 0.00 | 55 | 998.8 |
| 20260506162204 | 12 | 336 | 6.4 | 8.0 | 0.00 | 0.00 | 0.00 | 55 | 998.6 |
| 20260506162005 | 12 | 327 | 6.4 | 11.3 | 0.00 | 0.00 | 0.00 | 55 | 998.7 |
| 20260506161804 | 12 | 327 | 8.0 | 12.9 | 0.00 | 0.00 | 0.00 | 55 | 998.7 |
| 20260506161604 | 12 | 325 | 9.7 | 12.9 | 0.00 | 0.00 | 0.00 | 55 | 998.7 |
| 20260506161404 | 12 | 320 | 9.7 | 12.9 | 0.00 | 0.00 | 0.00 | 54 | 998.5 |
| 20260506161204 | 12 | 329 | 11.3 | 12.9 | 0.00 | 0.00 | 0.00 | 54 | 998.7 |
| 20260506161004 | 12 | 330 | 11.3 | 12.9 | 0.00 | 0.00 | 0.00 | 54 | 998.7 |
| 20260506160804 | 12 | 327 | 9.7 | 12.9 | 0.00 | 0.00 | 0.00 | 54 | 998.7 |
| 20260506160605 | 12 | 331 | 11.3 | 14.5 | 0.00 | 0.00 | 0.00 | 53 | 998.6 |
| 20260506160404 | 12 | 334 | 9.7 | 14.5 | 0.00 | 0.00 | 0.00 | 53 | 998.7 |
| 20260506160204 | 12 | 330 | 9.7 | 14.5 | 0.00 | 0.00 | 0.00 | 53 | 998.7 |
| 20260506155804 | 12 | 337 | 8.0 | 14.5 | 0.00 | 0.00 | 0.00 | 53 | 998.7 |
| 20260506155604 | 12 | 4 | 6.4 | 12.9 | 0.00 | 0.00 | 0.00 | 53 | 998.6 |
| 20260506155404 | 12 | 325 | 6.4 | 14.5 | 0.00 | 0.00 | 0.00 | 53 | 998.7 |
| 20260506155204 | 12 | 328 | 8.0 | 14.5 | 0.00 | 0.00 | 0.00 | 54 | 998.8 |
| 20260506154804 | 12 | 336 | 8.0 | 14.5 | 0.00 | 0.00 | 0.00 | 53 | 998.6 |
| 20260506154604 | 12 | 321 | 8.0 | 14.5 | 0.00 | 0.00 | 0.00 | 53 | 998.6 |
| 20260506154404 | 12 | 358 | 6.4 | 12.9 | 0.00 | 0.00 | 0.00 | 54 | 998.7 |
| 20260506154204 | 12 | 354 | 6.4 | 8.0 | 0.00 | 0.00 | 0.00 | 54 | 998.7 |
| 20260506153804 | 12 | 346 | 6.4 | 12.9 | 0.00 | 0.00 | 0.00 | 53 | 998.7 |
| 20260506153204 | 12 | 348 | 6.4 | 12.9 | 0.00 | 0.00 | 0.00 | 52 | 998.8 |
| 20260506153004 | 12 | 340 | 6.4 | 12.9 | 0.00 | 0.00 | 0.00 | 51 | 998.9 |
| 20260506152604 | 12 | 327 | 6.4 | 12.9 | 0.00 | 0.00 | 0.00 | 51 | 998.9 |
| 20260506152404 | 12 | 335 | 6.4 | 12.9 | 0.00 | 0.00 | 0.00 | 50 | 998.8 |
| 20260506152204 | 12 | 337 | 6.4 | 12.9 | 0.00 | 0.00 | 0.00 | 50 | 998.8 |
| 20260506152005 | 13 | 353 | 6.4 | 12.9 | 0.00 | 0.00 | 0.00 | 50 | 998.8 |
| 20260506151804 | 13 | 353 | 6.4 | 12.9 | 0.00 | 0.00 | 0.00 | 50 | 998.8 |
| 20260506151604 | 13 | 346 | 6.4 | 12.9 | 0.00 | 0.00 | 0.00 | 51 | 998.7 |
| 20260506151404 | 13 | 333 | 6.4 | 11.3 | 0.00 | 0.00 | 0.00 | 51 | 998.6 |
| 20260506151204 | 13 | 345 | 8.0 | 11.3 | 0.00 | 0.00 | 0.00 | 50 | 998.8 |
| 20260506151004 | 13 | 334 | 9.7 | 14.5 | 0.00 | 0.00 | 0.00 | 50 | 998.7 |
| 20260506150804 | 13 | 334 | 9.7 | 14.5 | 0.00 | 0.00 | 0.00 | 50 | 998.9 |
| 20260506150604 | 13 | 337 | 9.7 | 14.5 | 0.00 | 0.00 | 0.00 | 50 | 998.6 |
| 20260506150404 | 13 | 337 | 9.7 | 14.5 | 0.00 | 0.00 | 0.00 | 50 | 998.8 |
| 20260506150204 | 13 | 319 | 8.0 | 14.5 | 0.00 | 0.00 | 0.00 | 50 | 998.7 |
| 20260506150005 | 13 | 314 | 6.4 | 11.3 | 0.00 | 0.00 | 0.00 | 51 | 998.7 |
| 20260506145204 | 13 | 333 | 8.0 | 12.9 | 0.00 | 0.00 | 0.00 | 52 | 998.7 |
| 20260506144804 | 13 | 335 | 11.3 | 14.5 | 0.00 | 0.00 | 0.00 | 51 | 998.7 |
| 20260506144604 | 13 | 338 | 11.3 | 14.5 | 0.00 | 0.00 | 0.00 | 51 | 998.7 |
| 20260506144404 | 13 | 344 | 12.9 | 14.5 | 0.00 | 0.00 | 0.00 | 50 | 998.7 |
| 20260506144204 | 13 | 343 | 11.3 | 14.5 | 0.00 | 0.00 | 0.00 | 50 | 998.7 |
| 20260506144004 | 13 | 331 | 11.3 | 14.5 | 0.00 | 0.00 | 0.00 | 50 | 998.7 |
| 20260506143804 | 13 | 333 | 9.7 | 14.5 | 0.00 | 0.00 | 0.00 | 51 | 998.8 |
| 20260506143604 | 13 | 330 | 9.7 | 14.5 | 0.00 | 0.00 | 0.00 | 52 | 998.6 |
| 20260506143404 | 13 | 320 | 9.7 | 14.5 | 0.00 | 0.00 | 0.00 | 52 | 998.7 |
| 20260506143204 | 13 | 324 | 11.3 | 14.5 | 0.00 | 0.00 | 0.00 | 51 | 998.6 |
| 20260506142804 | 13 | 324 | 11.3 | 14.5 | 0.00 | 0.00 | 0.00 | 51 | 998.6 |
| 20260506142604 | 13 | 318 | 11.3 | 14.5 | 0.00 | 0.00 | 0.00 | 51 | 998.6 |
| 20260506142404 | 13 | 321 | 11.3 | 14.5 | 0.00 | 0.00 | 0.00 | 52 | 998.7 |
| 20260506141804 | 13 | 354 | 11.3 | 16.1 | 0.00 | 0.00 | 0.00 | 52 | 998.6 |
| 20260506141404 | 13 | 350 | 11.3 | 16.1 | 0.00 | 0.00 | 0.00 | 53 | 998.5 |
| 20260506141204 | 13 | 345 | 11.3 | 16.1 | 0.00 | 0.00 | 0.00 | 54 | 998.6 |
| 20260506141004 | 13 | 340 | 9.7 | 12.9 | 0.00 | 0.00 | 0.00 | 54 | 998.5 |
| 20260506140604 | 13 | 344 | 9.7 | 16.1 | 0.00 | 0.00 | 0.00 | 54 | 998.6 |
| 20260506140204 | 13 | 343 | 9.7 | 16.1 | 0.00 | 0.00 | 0.00 | 55 | 998.7 |
| 20260506140005 | 13 | 347 | 11.3 | 16.1 | 0.00 | 0.00 | 0.00 | 54 | 998.6 |
| 20260506135804 | 13 | 340 | 12.9 | 16.1 | 0.00 | 0.00 | 0.00 | 54 | 998.9 |
| 20260506135604 | 13 | 340 | 12.9 | 16.1 | 0.00 | 0.00 | 0.00 | 55 | 998.8 |
| 20260506135404 | 13 | 345 | 14.5 | 17.7 | 0.00 | 0.00 | 0.00 | 54 | 998.8 |
| 20260506135204 | 13 | 339 | 12.9 | 17.7 | 0.00 | 0.00 | 0.00 | 53 | 998.9 |
| 20260506134804 | 13 | 345 | 11.3 | 17.7 | 0.00 | 0.00 | 0.00 | 53 | 998.9 |
| 20260506134604 | 13 | 347 | 11.3 | 17.7 | 0.00 | 0.00 | 0.00 | 54 | 999.0 |
| 20260506134404 | 13 | 352 | 11.3 | 17.7 | 0.00 | 0.00 | 0.00 | 56 | 998.9 |
| 20260506134204 | 13 | 351 | 11.3 | 14.5 | 0.00 | 0.00 | 0.00 | 57 | 998.7 |
| 20260506133804 | 13 | 325 | 12.9 | 17.7 | 0.00 | 0.00 | 0.00 | 57 | 998.7 |
| 20260506133604 | 13 | 321 | 12.9 | 17.7 | 0.00 | 0.00 | 0.00 | 59 | 998.8 |
| 20260506133204 | 13 | 334 | 14.5 | 17.7 | 0.00 | 0.00 | 0.00 | 57 | 998.6 |
| 20260506132604 | 13 | 347 | 12.9 | 17.7 | 0.00 | 0.00 | 0.00 | 56 | 998.8 |
| 20260506132404 | 13 | 333 | 12.9 | 17.7 | 0.00 | 0.00 | 0.00 | 57 | 998.9 |
| 20260506132204 | 13 | 332 | 12.9 | 17.7 | 0.00 | 0.00 | 0.00 | 57 | 998.8 |
| 20260506132005 | 13 | 332 | 12.9 | 17.7 | 0.00 | 0.00 | 0.00 | 57 | 998.7 |
| 20260506131804 | 13 | 340 | 12.9 | 17.7 | 0.00 | 0.00 | 0.00 | 58 | 998.8 |
| 20260506131603 | 13 | 335 | 12.9 | 17.7 | 0.00 | 0.00 | 0.00 | 59 | 998.8 |
| 20260506131404 | 13 | 341 | 12.9 | 17.7 | 0.00 | 0.00 | 0.00 | 58 | 998.8 |
| 20260506131204 | 13 | 333 | 12.9 | 17.7 | 0.00 | 0.00 | 0.00 | 58 | 998.7 |
| 20260506131004 | 13 | 325 | 12.9 | 17.7 | 0.00 | 0.00 | 0.00 | 57 | 998.8 |
| 20260506130804 | 13 | 306 | 11.3 | 17.7 | 0.00 | 0.00 | 0.00 | 58 | 998.8 |
| 20260506130604 | 13 | 297 | 9.7 | 16.1 | 0.00 | 0.00 | 0.00 | 59 | 998.8 |
| 20260506130404 | 13 | 305 | 11.3 | 16.1 | 0.00 | 0.00 | 0.00 | 60 | 998.8 |
| 20260506130204 | 13 | 320 | 12.9 | 17.7 | 0.00 | 0.00 | 0.00 | 60 | 998.7 |
| 20260506125604 | 12 | 337 | 11.3 | 17.7 | 0.00 | 0.00 | 0.00 | 58 | 998.7 |
| 20260506125403 | 13 | 340 | 11.3 | 17.7 | 0.00 | 0.00 | 0.00 | 60 | 998.6 |
| 20260506125004 | 12 | 349 | 11.3 | 22.5 | 0.00 | 0.00 | 0.00 | 60 | 998.6 |
| 20260506124804 | 12 | 347 | 11.3 | 22.5 | 0.00 | 0.00 | 0.00 | 60 | 998.7 |
| 20260506124604 | 12 | 343 | 11.3 | 22.5 | 0.00 | 0.00 | 0.00 | 60 | 998.7 |
| 20260506124204 | 12 | 327 | 11.3 | 22.5 | 0.00 | 0.00 | 0.00 | 60 | 998.7 |
| 20260506124004 | 12 | 313 | 9.7 | 14.5 | 0.00 | 0.00 | 0.00 | 61 | 998.9 |
| 20260506123804 | 12 | 330 | 9.7 | 12.9 | 0.00 | 0.00 | 0.00 | 62 | 998.8 |
| 20260506123604 | 12 | 342 | 11.3 | 14.5 | 0.00 | 0.00 | 0.00 | 66 | 998.8 |
| 20260506123404 | 12 | 331 | 11.3 | 16.1 | 0.00 | 0.00 | 0.00 | 66 | 998.7 |
| 20260506123204 | 12 | 338 | 12.9 | 16.1 | 0.00 | 0.00 | 0.00 | 66 | 998.8 |
| 20260506123004 | 11 | 339 | 12.9 | 16.1 | 0.00 | 0.00 | 0.00 | 66 | 998.8 |
| 20260506122804 | 11 | 338 | 14.5 | 16.1 | 0.00 | 0.00 | 0.00 | 66 | 998.7 |
| 20260506122604 | 11 | 345 | 14.5 | 20.9 | 0.00 | 0.00 | 0.00 | 66 | 998.7 |
| 20260506122204 | 11 | 345 | 16.1 | 20.9 | 0.00 | 0.00 | 0.00 | 66 | 998.6 |
| 20260506122004 | 11 | 349 | 16.1 | 20.9 | 0.00 | 0.00 | 0.00 | 65 | 998.9 |
| 20260506121804 | 12 | 348 | 16.1 | 20.9 | 0.00 | 0.00 | 0.00 | 64 | 998.8 |
| 20260506121604 | 12 | 335 | 14.5 | 20.9 | 0.00 | 0.00 | 0.00 | 64 | 998.8 |
| 20260506121404 | 12 | 341 | 12.9 | 17.7 | 0.00 | 0.00 | 0.00 | 64 | 998.6 |
| 20260506121204 | 12 | 342 | 11.3 | 17.7 | 0.00 | 0.00 | 0.00 | 64 | 998.8 |
| 20260506120804 | 12 | 342 | 11.3 | 16.1 | 0.00 | 0.00 | 0.00 | 64 | 998.8 |
| 20260506120604 | 12 | 353 | 11.3 | 17.7 | 0.00 | 0.00 | 0.00 | 65 | 998.6 |
| 20260506120404 | 12 | 346 | 12.9 | 17.7 | 0.00 | 0.00 | 0.00 | 65 | 998.7 |
| 20260506120004 | 12 | 336 | 14.5 | 17.7 | 0.00 | 0.00 | 0.00 | 65 | 998.8 |
| 20260506115804 | 11 | 340 | 14.5 | 17.7 | 0.00 | 0.00 | 0.00 | 65 | 998.7 |
| 20260506115604 | 11 | 340 | 14.5 | 19.3 | 0.00 | 0.00 | 0.00 | 65 | 998.8 |
| 20260506115404 | 11 | 343 | 14.5 | 19.3 | 0.00 | 0.00 | 0.00 | 65 | 998.8 |
| 20260506115204 | 12 | 347 | 16.1 | 19.3 | 0.00 | 0.00 | 0.00 | 65 | 998.8 |
| 20260506115004 | 12 | 352 | 14.5 | 19.3 | 0.00 | 0.00 | 0.00 | 65 | 999.0 |
| 20260506114804 | 12 | 350 | 14.5 | 19.3 | 0.00 | 0.00 | 0.00 | 65 | 998.7 |
| 20260506114604 | 12 | 355 | 12.9 | 19.3 | 0.00 | 0.00 | 0.00 | 65 | 998.8 |
| 20260506114404 | 12 | 352 | 12.9 | 16.1 | 0.00 | 0.00 | 0.00 | 64 | 998.6 |
| 20260506114203 | 12 | 347 | 14.5 | 17.7 | 0.00 | 0.00 | 0.00 | 64 | 998.6 |
| 20260506114005 | 12 | 342 | 14.5 | 17.7 | 0.00 | 0.00 | 0.00 | 63 | 998.7 |
| 20260506113804 | 12 | 342 | 14.5 | 17.7 | 0.00 | 0.00 | 0.00 | 60 | 998.7 |
| 20260506113604 | 12 | 339 | 14.5 | 17.7 | 0.00 | 0.00 | 0.00 | 60 | 998.8 |
| 20260506113004 | 12 | 347 | 12.9 | 17.7 | 0.00 | 0.00 | 0.00 | 60 | 998.7 |
| 20260506112804 | 12 | 353 | 12.9 | 17.7 | 0.00 | 0.00 | 0.00 | 60 | 998.8 |
| 20260506112604 | 12 | 356 | 12.9 | 17.7 | 0.00 | 0.00 | 0.00 | 60 | 998.7 |
| 20260506112203 | 12 | 1 | 12.9 | 17.7 | 0.00 | 0.00 | 0.00 | 61 | 998.6 |
| 20260506112004 | 12 | 353 | 14.5 | 19.3 | 0.00 | 0.00 | 0.00 | 61 | 998.8 |
| 20260506111804 | 12 | 345 | 16.1 | 24.1 | 0.00 | 0.00 | 0.00 | 64 | 998.8 |
| 20260506111604 | 12 | 335 | 16.1 | 24.1 | 0.00 | 0.00 | 0.00 | 63 | 998.7 |
| 20260506111404 | 12 | 330 | 16.1 | 24.1 | 0.00 | 0.00 | 0.00 | 63 | 998.7 |
| 20260506111004 | 12 | 323 | 16.1 | 24.1 | 0.00 | 0.00 | 0.00 | 63 | 998.8 |
| 20260506110804 | 12 | 322 | 16.1 | 24.1 | 0.00 | 0.00 | 0.00 | 60 | 998.8 |
| 20260506110604 | 12 | 327 | 16.1 | 19.3 | 0.00 | 0.00 | 0.00 | 63 | 998.8 |
| 20260506110404 | 12 | 334 | 16.1 | 22.5 | 0.00 | 0.00 | 0.00 | 63 | 998.9 |
| 20260506110004 | 12 | 334 | 17.7 | 22.5 | 0.00 | 0.00 | 0.00 | 63 | 998.7 |
| 20260506105804 | 12 | 339 | 16.1 | 22.5 | 0.00 | 0.00 | 0.00 | 60 | 998.7 |
| 20260506105204 | 12 | 351 | 12.9 | 17.7 | 0.00 | 0.00 | 0.00 | 61 | 998.6 |
| 20260506105003 | 12 | 356 | 12.9 | 17.7 | 0.00 | 0.00 | 0.00 | 61 | 998.6 |
| 20260506104804 | 12 | 355 | 11.3 | 16.1 | 0.00 | 0.00 | 0.00 | 62 | 998.8 |
| 20260506104604 | 12 | 342 | 12.9 | 17.7 | 0.00 | 0.00 | 0.00 | 62 | 998.7 |
| 20260506104404 | 12 | 344 | 14.5 | 17.7 | 0.00 | 0.00 | 0.00 | 66 | 998.8 |
| 20260506104204 | 12 | 342 | 14.5 | 20.9 | 0.00 | 0.00 | 0.00 | 66 | 998.7 |
| 20260506104004 | 12 | 339 | 16.1 | 20.9 | 0.00 | 0.00 | 0.00 | 66 | 998.8 |
| 20260506103804 | 12 | 342 | 16.1 | 20.9 | 0.00 | 0.00 | 0.00 | 65 | 998.6 |
| 20260506103604 | 11 | 348 | 16.1 | 20.9 | 0.00 | 0.00 | 0.00 | 65 | 998.7 |
| 20260506103404 | 11 | 351 | 16.1 | 20.9 | 0.00 | 0.00 | 0.00 | 65 | 998.7 |
| 20260506103204 | 11 | 355 | 16.1 | 20.9 | 0.00 | 0.00 | 0.00 | 65 | 998.6 |
| 20260506103004 | 11 | 355 | 14.5 | 19.3 | 0.00 | 0.00 | 0.00 | 65 | 998.6 |
| 20260506102804 | 12 | 351 | 12.9 | 17.7 | 0.00 | 0.00 | 0.00 | 66 | 998.5 |
| 20260506102604 | 12 | 343 | 12.9 | 16.1 | 0.00 | 0.00 | 0.00 | 66 | 998.5 |
| 20260506102404 | 12 | 333 | 12.9 | 16.1 | 0.00 | 0.00 | 0.00 | 66 | 998.6 |
| 20260506102204 | 12 | 329 | 12.9 | 19.3 | 0.00 | 0.00 | 0.00 | 66 | 998.6 |
| 20260506101804 | 12 | 333 | 16.1 | 19.3 | 0.00 | 0.00 | 0.00 | 67 | 998.6 |
| 20260506101604 | 11 | 333 | 17.7 | 19.3 | 0.00 | 0.00 | 0.00 | 66 | 998.4 |
| 20260506101404 | 11 | 331 | 17.7 | 19.3 | 0.00 | 0.00 | 0.00 | 66 | 998.6 |
| 20260506101204 | 11 | 329 | 16.1 | 19.3 | 0.00 | 0.00 | 0.00 | 65 | 998.7 |
| 20260506101004 | 11 | 325 | 14.5 | 19.3 | 0.00 | 0.00 | 0.00 | 65 | 998.7 |
| 20260506100804 | 11 | 325 | 14.5 | 17.7 | 0.00 | 0.00 | 0.00 | 65 | 998.6 |
| 20260506100604 | 11 | 330 | 12.9 | 16.1 | 0.00 | 0.00 | 0.00 | 64 | 998.7 |
| 20260506100204 | 12 | 331 | 12.9 | 17.7 | 0.00 | 0.00 | 0.00 | 64 | 998.6 |
| 20260506100004 | 12 | 336 | 12.9 | 17.7 | 0.00 | 0.00 | 0.00 | 64 | 998.6 |
| 20260506095804 | 12 | 338 | 14.5 | 17.7 | 0.00 | 0.00 | 0.00 | 64 | 998.6 |
| 20260506095604 | 12 | 334 | 14.5 | 17.7 | 0.00 | 0.00 | 0.00 | 64 | 998.6 |
| 20260506095404 | 12 | 337 | 14.5 | 17.7 | 0.00 | 0.00 | 0.00 | 64 | 998.7 |
| 20260506095204 | 12 | 340 | 14.5 | 17.7 | 0.00 | 0.00 | 0.00 | 65 | 998.6 |
| 20260506095004 | 11 | 341 | 14.5 | 17.7 | 0.00 | 0.00 | 0.00 | 65 | 998.8 |
| 20260506094803 | 11 | 343 | 12.9 | 17.7 | 0.00 | 0.00 | 0.00 | 64 | 998.6 |
| 20260506094604 | 11 | 348 | 11.3 | 17.7 | 0.00 | 0.00 | 0.00 | 64 | 998.6 |
| 20260506094404 | 11 | 346 | 11.3 | 17.7 | 0.00 | 0.00 | 0.00 | 65 | 998.8 |
| 20260506094204 | 11 | 340 | 11.3 | 17.7 | 0.00 | 0.00 | 0.00 | 65 | 998.7 |
| 20260506093804 | 11 | 343 | 11.3 | 16.1 | 0.00 | 0.00 | 0.00 | 66 | 998.6 |